Regional Weather Roundup
Issued by NWS Northern Indiana

Home | Current Version | Previous Version | Text Only | Print | Product List | Glossary On
Versions: 1 2 3 4 5 6 7 8 9 10 11 12 13 14 15 16 17 18 19 20 21 22 23 24 25 26 27 28 29 30 31 32 33 34 35 36 37 38 39 40 41 42 43 44 45 46 47 48 49 50
000
ASUS43 KIWX 251010
RWRIWX

KIWX WEATHER ROUNDUP
NATIONAL WEATHER SERVICE NORTHERN INDIANA
600 AM EDT TUE JUL 25 2017

NOTE: "FAIR" INDICATES FEW OR NO CLOUDS BELOW 12,000 FEET WITH NO
SIGNIFICANT WEATHER AND/OR OBSTRUCTIONS TO VISIBILITY.

* THESE STATIONS ARE NOT UNDER NWS QUALITY CONTROL. THEY ALSO MAY NOT
  REPORT WEATHER SUCH AS PRECIPITATION OR FOG.

INZ001>027-251100-
NORTHERN INDIANA

CITY           SKY/WX    TMP DP  RH WIND       PRES   REMARKS
VALPARAISO     CLOUDY    58  58 100 NE3       30.18R FOG
MICHIGAN CITY*   N/A     54  54 100 CALM      30.19R FOG
LAPORTE*       CLEAR     56  55  98 CALM      30.19R
KNOX*            N/A     54  54 100 CALM      30.17S
SOUTH BEND     CLEAR     58  57  97 CALM      30.19R
GOSHEN         FOG       54  51  90 CALM      30.19R VSB 1/4
MONTICELLO*    CLEAR     58  57  95 CALM      30.16R
LOGANSPORT*    CLEAR     55  55 100 CALM      30.18R FOG
ROCHESTER*     CLEAR     59  59 100 CALM      30.18R
WARSAW*        CLEAR     55  54  94 CALM      30.19R
AUBURN*        CLEAR     54  52  94 CALM      30.18R
FORT WAYNE     PTCLDY    57  54  89 CALM      30.18R
HUNTINGTON*    CLEAR     57  56  95 CALM      30.17R
PERU/GRISSOM   PTCLDY    59  59 100 CALM      30.16R
MARION*        CLEAR     55  55 100 CALM      30.18R

$$
INZ028>050-251100-
CENTRAL INDIANA

CITY           SKY/WX    TMP DP  RH WIND       PRES   REMARKS
LAFAYETTE      CLEAR     59  57  93 E5        30.15R
KOKOMO*        CLEAR     58  57  97 CALM      30.18R
MUNCIE*        CLEAR     57  54  89 CALM      30.17R
INDIANAPOLIS   PTCLDY    64  57  78 E8        30.14R

$$
MIZ043>046-050>051-056>058-064>065-071>073-077>080-251100-
SOUTHWEST LOWER MICHIGAN

CITY           SKY/WX    TMP DP  RH WIND       PRES   REMARKS
BATTLE CREEK   CLEAR     56  54  93 CALM      30.19R
BENTON HARBOR  CLEAR     56  53  90 CALM      30.17R FOG
COLDWATER*     CLEAR     53  53 100 CALM      30.19R
HILLSDALE*     CLEAR     50  50 100 CALM      30.18S
HOLLAND        CLEAR     58  55  90 CALM      30.19R
GRAND RAPIDS   PTCLDY    58  55  90 CALM      30.18R
KALAMAZOO      CLEAR     56  52  86 CALM      30.20R
STURGIS*       CLEAR     55  54  98 E5        30.18R
THREE RIVERS*  FAIR      55  55  99 CALM      30.19R FOG

$$
OHZ001>008-015>018-024>025-251100-
NORTHWEST OHIO

CITY           SKY/WX    TMP DP  RH WIND       PRES   REMARKS
WAUSEON*       FAIR      50  50 100 CALM      30.17S
DEFIANCE       CLEAR    N/A N/A N/A CALM      30.18R
FINDLAY        CLEAR     57  52  83 CALM      30.16R
TOLEDO EXPRESS CLEAR     54  53  97 CALM      30.17R
TOLEDO METCALF PTCLDY    58  54  86 N3        30.18R
LIMA           CLEAR     53  53 100 CALM      30.17R FOG

$$
AND FOR LAKE MICHIGAN COASTAL AND OPEN LAKE BUOY OBSERVATIONS

STATION/POSITION TEMP    WIND        PRES    VSBY  WAVE
                 AIR SEA DIR/SP/G                  HT/PER
                 (F)     (DEG/KT/KT) (MB)    (MI)  (FT/S)
CALUMET HARBOR    66     170/  1/  2 1020.8R
MICHIGAN CITY     63     120/  5/  6   N/A
BURNS HARBOR      66     110/  2/  4 1022.0R
SAINT JOSEPH      61     170/  1/  2 1022.4
SOUTH LAKE BUOY   69 71   80/  2/  4 1021.4R         2/ 5
4 MI NW BRIDGMAN  64 71  160/  8/ 10 1021.8          2/ 5
MICHIGAN CITY     67 74  130/  8/ 10   N/A           3/ 5

$$
&&




USA.gov is the U.S. government's official web portal to all federal, state and local government web resources and services.